Regional Weather Roundup
Issued by NWS Lake Charles, LA

Home | Current Version | Previous Version | Text Only | Print | Product List | Glossary On
Versions: 1 2 3 4 5 6 7 8 9 10 11 12 13 14 15 16 17 18 19 20 21 22 23 24 25 26 27 28
000
ASUS44 KLCH 202010
RWRLCH
REGIONAL WEATHER ROUNDUP
NATIONAL WEATHER SERVICE LAKE CHARLES LA
200 PM CST FRI JAN 20 2017

Note: "fair" indicates few or no clouds below 12,000 feet with no
significant weather and/or obstructions to visibility.


ACROSS SOUTHEAST TEXAS

CITY           SKY/WX    TMP DP  RH WIND       PRES   REMARKS
BEAUMONT       MOSUNNY   79  63  57 SW7       29.71F
BEAUMONT CITY  FAIR      80  62  54 CALM      29.72F
ORANGE         CLEAR     78  61  56 CALM      29.73F
JASPER           N/A     74  62  65 S7        29.76F
$$

ACROSS CENTRAL LOUISIANA

CITY           SKY/WX    TMP DP  RH WIND       PRES   REMARKS
LEESVILLE      SUNNY     75  58  55 S12       29.73F
FULLERTON      FAIR      77  59  53 VRB5      29.71F
ALEXANDRIA INT SUNNY     75  59  57 SW9       29.73F HAZE
ESLER FIELD    SUNNY     78  56  46 SW9       29.74F
DERIDDER       FAIR      74  57  54 SW8       29.76F
OAKDALE        CLEAR     75  60  59 S10       29.75F
OPELOUSAS      FAIR      75  60  59 S8        29.76F
$$

ACROSS SOUTHWEST AND SOUTH CENTRAL LOUISIANA

CITY           SKY/WX    TMP DP  RH WIND       PRES   REMARKS
SULPHUR        CLEAR     78  64  63 S6        29.74F
LAKE CHARLES   SUNNY     76  64  66 SW6       29.73F
CHENNAULT INT  MOSUNNY   75  63  64 SW6       29.74F
CAMERON PHI    FOG       64  64 100 S6        29.74F VSB 1/4
DEQUINCY       FAIR      76  60  58 CALM      29.74F
JENNINGS       NOT AVBL
LAFAYETTE      SUNNY     77  63  61 S6        29.76F
NEW IBERIA     SUNNY     78  60  53 SW8       29.77F
ABBEVILLE      FAIR      75  66  73 SW5       29.77F
PATTERSON      MOSUNNY   77  65  66 VRB6      29.78F
SALT POINT     NOT AVBL
$$

SELECTED SITES ACROSS THE REGION

CITY           SKY/WX    TMP DP  RH WIND       PRES   REMARKS
HOUSTON BUSH   PTSUNNY   77  62  59 NW7       29.71F
HOUSTON HOBBY  PTSUNNY   79  63  57 SW6       29.69F
GALVESTON      SUNNY     74  65  73 SE6       29.73F
COLLEGE STAT   MOSUNNY   68  56  65 SW5       29.71F
CONROE         MOSUNNY   73  59  61 W5        29.73F
HUNTSVILLE     CLOUDY    69  55  60 S6        29.73F
LUFKIN         MOSUNNY   70  57  63 SW7       29.73F
SHREVEPORT     MOSUNNY   76  50  40 SW10      29.69F
MONROE         SUNNY     75  52  44 S14       29.71F
NATCHEZ MS     SUNNY     75  54  46 SW13      29.76S
BATON ROUGE    SUNNY     79  59  50 SW10      29.77F
N.O. INTL ARPT PTSUNNY   80  66  62 VRB7      29.78F
SLIDELL        PTSUNNY   78  64  61 W7        29.79S
$$

MARINE REPORTS

STATION/POSITION TIME  SKY/WX   TEMP    WIND        PRES    VSBY
                                AIR SEA DIR/SP/G
                 (UTC)          (F)     (DEG/KT/KT) (MB)    (MI)
BUOY 30 S HIGH I 1950            67 68  100/ 10/ 10 1006.5F
WVE H/P(F/S)=  2/ 7

SEA RIM ST PARK  1900            68     160/  6/  7 1008.1F
PORT ARTHUR      1948               66  150/  7/ 10 1006.4F
SABINE PASS N    1942            68 67  150/  8/ 10 1008.1F
TEXAS POINT      NOT AVBL
CALCASIEU PASS   1948            65 66  180/  6/  8   N/A
LK CHARLES BEACH 1948            73 65              1007.3F
MARSH ISLAND     NOT AVBL
FRESH WATER LOCK 1948            69 68  170/  6/ 10 1008.6F
AMERADA PASS     1948            68 54  240/  2/  4 1008.7F
$$




USA.gov is the U.S. government's official web portal to all federal, state and local government web resources and services.